Hourly Weather Maslovka

Today, 9 May, Sunday

Time Temperature Precipitation Wind Pressure Humidity
00:00 +10°C° 0.2 mm 6 mps 740 mmHg 82%
01:00 +10°C° 0.1 mm 5 mps 740 mmHg 83%
02:00 +10°C° 0.1 mm 5 mps 740 mmHg 85%
03:00 +10°C° 0.1 mm 5 mps 740 mmHg 86%
04:00 +10°C° 0 mm 5 mps 740 mmHg 87%
05:00 +10°C° 0 mm 5 mps 740 mmHg 89%
06:00 +11°C° 0 mm 4 mps 740 mmHg 90%
07:00 +12°C° 0.2 mm 4 mps 740 mmHg 90%
08:00 +12°C° 0.2 mm 4 mps 740 mmHg 90%
09:00 +13°C° 0.2 mm 4 mps 740 mmHg 90%
10:00 +12°C° 1.2 mm 4 mps 740 mmHg 91%
11:00 +12°C° 1.2 mm 4 mps 740 mmHg 93%
12:00 +11°C° 1.2 mm 4 mps 741 mmHg 94%
13:00 +10°C° 0.6 mm 4 mps 741 mmHg 93%
14:00 +7°C° 0.6 mm 4 mps 742 mmHg 91%
15:00 +6°C° 0.6 mm 4 mps 742 mmHg 90%
16:00 +7°C° 0.4 mm 3 mps 743 mmHg 91%
17:00 +7°C° 0.4 mm 3 mps 743 mmHg 92%
18:00 +7°C° 0.4 mm 3 mps 744 mmHg 93%
19:00 +5°C° 0 mm 3 mps 744 mmHg 94%
20:00 +5°C° 0 mm 4 mps 745 mmHg 94%
21:00 +5°C° 0 mm 4 mps 745 mmHg 95%
22:00 +5°C° 0 mm 4 mps 746 mmHg 95%
23:00 +5°C° 0 mm 3 mps 746 mmHg 95%

Tomorrow, 10 May, Monday

Time Temperature Precipitation Wind Pressure Humidity
00:00 +4°C° 0 mm 3 mps 747 mmHg 95%
01:00 +4°C° 0.1 mm 3 mps 747 mmHg 96%
02:00 +4°C° 0.1 mm 4 mps 747 mmHg 96%
03:00 +4°C° 0.1 mm 4 mps 747 mmHg 96%
04:00 +5°C° 0.1 mm 4 mps 748 mmHg 97%
05:00 +5°C° 0.1 mm 5 mps 748 mmHg 97%
06:00 +5°C° 0.1 mm 5 mps 749 mmHg 97%
07:00 +5°C° 0.3 mm 5 mps 749 mmHg 96%
08:00 +4°C° 0.3 mm 6 mps 750 mmHg 96%
09:00 +4°C° 0.3 mm 6 mps 750 mmHg 96%
10:00 +4°C° 0.2 mm 6 mps 750 mmHg 95%
11:00 +5°C° 0.2 mm 6 mps 751 mmHg 95%
12:00 +5°C° 0.2 mm 6 mps 751 mmHg 95%
13:00 +5°C° 0.1 mm 7 mps 751 mmHg 93%
14:00 +6°C° 0.1 mm 7 mps 752 mmHg 92%
15:00 +8°C° 0.1 mm 7 mps 752 mmHg 90%
16:00 +8°C° 0 mm 7 mps 752 mmHg 90%
17:00 +8°C° 0 mm 6 mps 752 mmHg 89%
18:00 +8°C° 0 mm 6 mps 752 mmHg 89%
19:00 +8°C° 0 mm 6 mps 753 mmHg 90%
20:00 +7°C° 0 mm 6 mps 753 mmHg 91%
21:00 +6°C° 0 mm 7 mps 753 mmHg 93%
22:00 +5°C° 0 mm 7 mps 753 mmHg 93%
23:00 +5°C° 0 mm 6 mps 753 mmHg 94%

Day after tomorrow, 11 May, Tuesday

Time Temperature Precipitation Wind Pressure Humidity
00:00 +5°C° 0 mm 6 mps 753 mmHg 95%
01:00 +5°C° 0 mm 6 mps 753 mmHg 94%
02:00 +5°C° 0 mm 6 mps 753 mmHg 94%
03:00 +5°C° 0 mm 6 mps 753 mmHg 94%
04:00 +5°C° 0 mm 6 mps 753 mmHg 94%
05:00 +5°C° 0 mm 6 mps 753 mmHg 93%
06:00 +7°C° 0 mm 6 mps 753 mmHg 92%
07:00 +7°C° 0.1 mm 6 mps 753 mmHg 92%
08:00 +8°C° 0.1 mm 6 mps 754 mmHg 91%
09:00 +8°C° 0.1 mm 6 mps 754 mmHg 90%
10:00 +10°C° 0 mm 6 mps 754 mmHg 86%
11:00 +13°C° 0 mm 6 mps 754 mmHg 82%
12:00 +15°C° 0 mm 7 mps 754 mmHg 78%
13:00 +16°C° 0 mm 7 mps 754 mmHg 75%
14:00 +17°C° 0 mm 7 mps 754 mmHg 72%
15:00 +18°C° 0 mm 7 mps 754 mmHg 69%
16:00 +18°C° 0 mm 7 mps 754 mmHg 72%
17:00 +19°C° 0 mm 6 mps 754 mmHg 75%
18:00 +17°C° 0 mm 6 mps 753 mmHg 78%
19:00 +16°C° 0 mm 6 mps 753 mmHg 82%
20:00 +15°C° 0 mm 6 mps 753 mmHg 86%
21:00 +14°C° 0 mm 5 mps 753 mmHg 90%
22:00 +13°C° 0 mm 5 mps 753 mmHg 91%
23:00 +13°C° 0 mm 4 mps 753 mmHg 93%

12 May, Wednesday

Time Temperature Precipitation Wind Pressure Humidity
00:00 +12°C° 0 mm 3 mps 754 mmHg 95%
01:00 +12°C° 0 mm 3 mps 753 mmHg 95%
02:00 +11°C° 0 mm 3 mps 753 mmHg 96%
03:00 +11°C° 0 mm 4 mps 753 mmHg 96%
04:00 +12°C° 0 mm 4 mps 753 mmHg 93%
05:00 +12°C° 0 mm 5 mps 753 mmHg 91%
06:00 +13°C° 0 mm 5 mps 753 mmHg 88%
07:00 +14°C° 0 mm 5 mps 753 mmHg 85%
08:00 +15°C° 0 mm 5 mps 753 mmHg 83%
09:00 +15°C° 0 mm 5 mps 753 mmHg 80%
10:00 +17°C° 0 mm 5 mps 753 mmHg 75%
11:00 +19°C° 0 mm 6 mps 753 mmHg 71%
12:00 +20°C° 0 mm 6 mps 753 mmHg 66%
13:00 +21°C° 0 mm 6 mps 753 mmHg 64%
14:00 +21°C° 0 mm 6 mps 753 mmHg 62%
15:00 +22°C° 0 mm 6 mps 753 mmHg 60%
16:00 +21°C° 0 mm 5 mps 753 mmHg 64%
17:00 +20°C° 0 mm 4 mps 753 mmHg 68%
18:00 +19°C° 0 mm 4 mps 753 mmHg 72%
19:00 +18°C° 0 mm 3 mps 753 mmHg 73%
20:00 +17°C° 0 mm 3 mps 753 mmHg 75%
21:00 +16°C° 0 mm 3 mps 753 mmHg 77%
22:00 +16°C° 0.1 mm 3 mps 752 mmHg 78%
23:00 +16°C° 0.1 mm 3 mps 752 mmHg 79%

13 May, Thursday

Time Temperature Precipitation Wind Pressure Humidity
00:00 +16°C° 0.1 mm 3 mps 752 mmHg 80%
01:00 +14°C° 0 mm 4 mps 752 mmHg 78%
02:00 +14°C° 0 mm 4 mps 752 mmHg 76%
03:00 +13°C° 0 mm 4 mps 751 mmHg 74%
04:00 +14°C° 0 mm 5 mps 751 mmHg 74%
05:00 +14°C° 0 mm 5 mps 751 mmHg 74%
06:00 +14°C° 0 mm 5 mps 751 mmHg 74%
07:00 +14°C° 0 mm 5 mps 751 mmHg 74%
08:00 +15°C° 0 mm 5 mps 751 mmHg 73%
09:00 +15°C° 0 mm 5 mps 751 mmHg 73%
10:00 +16°C° 0 mm 5 mps 751 mmHg 70%
11:00 +17°C° 0 mm 5 mps 751 mmHg 67%
12:00 +19°C° 0 mm 6 mps 751 mmHg 64%
13:00 +20°C° 0 mm 6 mps 751 mmHg 63%
14:00 +21°C° 0 mm 6 mps 751 mmHg 62%
15:00 +22°C° 0 mm 6 mps 751 mmHg 60%
16:00 +21°C° 0 mm 6 mps 751 mmHg 64%
17:00 +21°C° 0 mm 5 mps 751 mmHg 67%
18:00 +20°C° 0 mm 4 mps 750 mmHg 70%
19:00 +19°C° 0 mm 4 mps 750 mmHg 75%
20:00 +17°C° 0 mm 3 mps 750 mmHg 81%
21:00 +16°C° 0 mm 3 mps 750 mmHg 86%
22:00 +16°C° 0 mm 3 mps 750 mmHg 85%
23:00 +16°C° 0 mm 3 mps 750 mmHg 84%

14 May, Friday

Time Temperature Precipitation Wind Pressure Humidity
00:00 +17°C° 0 mm 3 mps 750 mmHg 82%
01:00 +16°C° 0 mm 3 mps 750 mmHg 80%
02:00 +15°C° 0 mm 4 mps 750 mmHg 79%
03:00 +14°C° 0 mm 4 mps 750 mmHg 77%
04:00 +14°C° 0 mm 4 mps 750 mmHg 77%
05:00 +14°C° 0 mm 4 mps 750 mmHg 76%
06:00 +14°C° 0 mm 4 mps 750 mmHg 76%
07:00 +16°C° 0 mm 5 mps 750 mmHg 73%
08:00 +17°C° 0 mm 5 mps 750 mmHg 70%
09:00 +20°C° 0 mm 6 mps 750 mmHg 67%
10:00 +21°C° 0 mm 6 mps 750 mmHg 64%
11:00 +22°C° 0 mm 6 mps 750 mmHg 61%
12:00 +24°C° 0 mm 6 mps 750 mmHg 58%
13:00 +24°C° 0 mm 6 mps 750 mmHg 59%
14:00 +26°C° 0 mm 6 mps 749 mmHg 59%
15:00 +26°C° 0 mm 6 mps 749 mmHg 59%
16:00 +24°C° 0 mm 6 mps 749 mmHg 60%
17:00 +23°C° 0 mm 5 mps 749 mmHg 62%
18:00 +22°C° 0 mm 5 mps 748 mmHg 64%
19:00 +21°C° 0 mm 5 mps 748 mmHg 68%
20:00 +19°C° 0 mm 4 mps 748 mmHg 72%
21:00 +18°C° 0 mm 4 mps 748 mmHg 75%
22:00 +18°C° 0 mm 4 mps 748 mmHg 74%
23:00 +17°C° 0 mm 4 mps 748 mmHg 72%
Show more